This is the latest recevied weather packets stored in our database for station/object KJ5IIV. If no packets are shown the sender has not sent any weather packets the latest 10 day(s).
| Time | Temp. | Humidity | Pressure | Rain* | Wind** | Luminosity | Snow |
|---|---|---|---|---|---|---|---|
| 1778198167 | 20.56° C | 67% | 1015.4 hPa | 0 mm | - | 73 W/m² | - |
| 1778197864 | 20.56° C | 65% | 1015.2 hPa | 0 mm | - | 71 W/m² | - |
| 1778197560 | 20.56° C | 66% | 1015.2 hPa | 0 mm | - | 95 W/m² | - |
| 1778197257 | 20.56° C | 64% | 1015.1 hPa | 0 mm | - | 104 W/m² | - |
| 1778196954 | 21.11° C | 64% | 1015.1 hPa | 0 mm | - | 97 W/m² | - |
| 1778196653 | 21.11° C | 64% | 1015.2 hPa | 0 mm | - | 103 W/m² | - |
| 1778196348 | 21.11° C | 63% | 1015.1 hPa | 0 mm | - | 113 W/m² | - |
| 1778196046 | 21.11° C | 62% | 1015 hPa | 0 mm | - | 128 W/m² | - |
| 1778195742 | 21.11° C | 62% | 1015.2 hPa | 0 mm | - | 123 W/m² | - |
| 1778195439 | 21.11° C | 61% | 1015.3 hPa | 0 mm | - | 124 W/m² | - |
| 1778195136 | 21.11° C | 62% | 1015.1 hPa | 0 mm | - | 130 W/m² | - |
| 1778194833 | 21.11° C | 62% | 1015.2 hPa | 0 mm | - | 141 W/m² | - |
| 1778194527 | 21.67° C | 62% | 1014.7 hPa | 0 mm | - | 162 W/m² | - |
| 1778194224 | 21.67° C | 61% | 1015.2 hPa | 0 mm | - | 179 W/m² | - |
| 1778193920 | 21.67° C | 60% | 1015.1 hPa | 0 mm | - | 188 W/m² | - |
| 1778193617 | 21.67° C | 60% | 1015.4 hPa | 0 mm | - | 197 W/m² | - |
| 1778193313 | 21.67° C | 59% | 1015.2 hPa | 0 mm | - | 212 W/m² | - |
| 1778193010 | 21.67° C | 61% | 1015.5 hPa | 0 mm | - | 207 W/m² | - |
| 1778192707 | 21.67° C | 59% | 1015.4 hPa | 0 mm | - | 204 W/m² | - |
| 1778192403 | 21.67° C | 59% | 1015.3 hPa | 0 mm | - | 210 W/m² | - |
| 1778192100 | 22.22° C | 57% | 1015.5 hPa | 0 mm | - | 219 W/m² | - |
| 1778191796 | 22.78° C | 56% | 1015.4 hPa | 0 mm | - | 229 W/m² | - |
| 1778191494 | 22.78° C | 56% | 1015.4 hPa | 0 mm | - | 275 W/m² | - |
| 1778191191 | 22.78° C | 55% | 1015.4 hPa | 0 mm | - | 391 W/m² | - |
| 1778190887 | 22.78° C | 57% | 1015.6 hPa | 0 mm | - | 426 W/m² | - |
* Rain latest hour (hover to see other rain measurements)
** Current wind speed in m/s (hover to see current wind gust speed)